| time (UTC) | temp C | wind direction | speed KPH | gust KPH | rain 1hr cm | rain 24hr cm | rain mn cm | humidity % | barometer mb |
| 20260507161343 | 16 | 75 | 0.0 | 0.0 | 0.00 | 0.00 | 0.00 | 88 | 1016.3 |
| 20260507160412 | 16 | 248 | 0.0 | 0.0 | 0.00 | 0.00 | 0.00 | 90 | 1016.3 |
| 20260507155511 | 16 | 74 | 0.0 | 0.0 | 0.00 | 0.00 | 0.00 | 92 | 1016.3 |
| 20260507154611 | 15 | 272 | 0.0 | 0.0 | 0.00 | 0.00 | 0.00 | 93 | 1016.3 |
| 20260507153709 | 15 | 272 | 0.0 | 0.0 | 0.00 | 0.00 | 0.00 | 94 | 1016.3 |
| 20260507152809 | 15 | 258 | 0.0 | 0.0 | 0.00 | 0.00 | 0.00 | 94 | 1016.3 |
| 20260507151907 | 15 | 269 | 0.0 | 0.0 | 0.00 | 0.00 | 0.00 | 95 | 1016.3 |
| 20260507151007 | 15 | 269 | 0.0 | 0.0 | 0.00 | 0.00 | 0.00 | 95 | 1016.3 |
| 20260507150106 | 14 | 54 | 0.0 | 0.0 | 0.00 | 0.00 | 0.00 | 95 | 1015.9 |
| 20260507145205 | 14 | 54 | 0.0 | 0.0 | 0.00 | 0.00 | 0.00 | 95 | 1016.3 |
| 20260507144233 | 13 | 257 | 0.0 | 0.0 | 0.00 | 0.00 | 0.00 | 95 | 1015.9 |
| 20260507143331 | 13 | 256 | 0.0 | 0.0 | 0.00 | 0.00 | 0.00 | 95 | 1015.9 |
| 20260507142431 | 13 | 256 | 0.0 | 0.0 | 0.00 | 0.00 | 0.00 | 95 | 1015.9 |
| 20260507141530 | 13 | 256 | 0.0 | 0.0 | 0.00 | 0.00 | 0.00 | 96 | 1015.9 |
| 20260507140629 | 12 | 256 | 0.0 | 0.0 | 0.00 | 0.00 | 0.00 | 95 | 1015.9 |
| 20260507135656 | 12 | 256 | 0.0 | 0.0 | 0.00 | 0.00 | 0.00 | 95 | 1015.6 |
| 20260507134756 | 12 | 256 | 0.0 | 0.0 | 0.00 | 0.00 | 0.00 | 95 | 1015.6 |
| 20260507133855 | 12 | 256 | 0.0 | 0.0 | 0.00 | 0.00 | 0.00 | 95 | 1015.6 |
| 20260507132851 | 12 | 256 | 0.0 | 0.0 | 0.00 | 0.00 | 0.00 | 95 | 1015.6 |
| 20260507131919 | 12 | 256 | 0.0 | 0.0 | 0.00 | 0.00 | 0.00 | 95 | 1015.6 |
| 20260507131018 | 12 | 256 | 0.0 | 0.0 | 0.00 | 0.00 | 0.00 | 95 | 1015.6 |
| 20260507130117 | 12 | 256 | 0.0 | 0.0 | 0.00 | 0.00 | 0.00 | 95 | 1015.6 |
| 20260507125216 | 11 | 256 | 0.0 | 0.0 | 0.00 | 0.00 | 0.00 | 95 | 1015.6 |
| 20260507124315 | 11 | 256 | 0.0 | 0.0 | 0.00 | 0.00 | 0.00 | 95 | 1015.2 |
| 20260507123414 | 11 | 233 | 0.0 | 0.0 | 0.00 | 0.00 | 0.00 | 95 | 1015.2 |
| 20260507122513 | 11 | 233 | 0.0 | 0.0 | 0.00 | 0.00 | 0.00 | 95 | 1015.2 |
| 20260507121613 | 11 | 233 | 0.0 | 0.0 | 0.00 | 0.00 | 0.00 | 95 | 1015.2 |
| 20260507120712 | 11 | 233 | 0.0 | 0.0 | 0.00 | 0.00 | 0.00 | 95 | 1015.2 |
| 20260507115811 | 11 | 233 | 0.0 | 0.0 | 0.00 | 0.00 | 0.00 | 95 | 1015.2 |
| 20260507114838 | 11 | 233 | 0.0 | 0.0 | 0.00 | 0.00 | 0.00 | 95 | 1015.2 |
| 20260507113937 | 11 | 233 | 0.0 | 0.0 | 0.00 | 0.00 | 0.00 | 95 | 1015.2 |
| 20260507113037 | 11 | 233 | 0.0 | 0.0 | 0.00 | 0.00 | 0.00 | 95 | 1015.2 |
| 20260507112136 | 11 | 233 | 0.0 | 0.0 | 0.00 | 0.00 | 0.00 | 95 | 1015.2 |
| 20260507111234 | 11 | 233 | 0.0 | 0.0 | 0.00 | 0.00 | 0.00 | 95 | 1015.2 |
| 20260507110334 | 11 | 233 | 0.0 | 0.0 | 0.00 | 0.00 | 0.00 | 95 | 1015.2 |
| 20260507105433 | 12 | 233 | 0.0 | 0.0 | 0.00 | 0.00 | 0.00 | 95 | 1015.2 |
| 20260507104532 | 11 | 233 | 0.0 | 0.0 | 0.00 | 0.00 | 0.00 | 95 | 1015.2 |
| 20260507103600 | 11 | 233 | 0.0 | 0.0 | 0.00 | 0.00 | 0.00 | 95 | 1015.2 |
| 20260507102659 | 11 | 233 | 0.0 | 0.0 | 0.00 | 0.00 | 0.00 | 95 | 1015.6 |
| 20260507101758 | 12 | 233 | 0.0 | 0.0 | 0.00 | 0.00 | 0.00 | 95 | 1015.6 |
| 20260507100856 | 12 | 233 | 0.0 | 0.0 | 0.00 | 0.00 | 0.00 | 95 | 1015.6 |
| 20260507095954 | 11 | 233 | 0.0 | 0.0 | 0.00 | 0.00 | 0.00 | 94 | 1015.6 |
| 20260507095054 | 11 | 233 | 0.0 | 0.0 | 0.00 | 0.00 | 0.00 | 94 | 1015.6 |
| 20260507094121 | 11 | 233 | 0.0 | 0.0 | 0.00 | 0.00 | 0.00 | 94 | 1015.6 |
| 20260507093149 | 11 | 233 | 0.0 | 0.0 | 0.00 | 0.00 | 0.00 | 94 | 1015.6 |
| 20260507092248 | 12 | 233 | 0.0 | 0.0 | 0.00 | 0.00 | 0.00 | 94 | 1015.9 |
| 20260507091346 | 12 | 233 | 0.0 | 0.0 | 0.00 | 0.00 | 0.00 | 94 | 1015.9 |
| 20260507090444 | 12 | 233 | 0.0 | 0.0 | 0.00 | 0.00 | 0.00 | 94 | 1015.9 |
| 20260507085543 | 12 | 233 | 0.0 | 0.0 | 0.00 | 0.00 | 0.00 | 94 | 1015.9 |
| 20260507084642 | 12 | 233 | 0.0 | 0.0 | 0.00 | 0.00 | 0.00 | 94 | 1016.3 |
| 20260507083741 | 12 | 233 | 0.0 | 0.0 | 0.00 | 0.00 | 0.00 | 94 | 1016.3 |
| 20260507082841 | 12 | 250 | 0.0 | 0.0 | 0.00 | 0.00 | 0.00 | 94 | 1016.3 |
| 20260507081940 | 12 | 250 | 0.0 | 0.0 | 0.00 | 0.00 | 0.00 | 94 | 1016.3 |
| 20260507081039 | 12 | 250 | 0.0 | 0.0 | 0.00 | 0.00 | 0.00 | 93 | 1016.3 |
| 20260507080138 | 12 | 249 | 0.0 | 0.0 | 0.00 | 0.00 | 0.00 | 93 | 1016.3 |
| 20260507075206 | 13 | 249 | 0.0 | 0.0 | 0.00 | 0.00 | 0.00 | 93 | 1016.3 |
| 20260507074305 | 13 | 250 | 0.0 | 0.0 | 0.00 | 0.00 | 0.00 | 93 | 1016.6 |
| 20260507073404 | 13 | 250 | 0.0 | 0.0 | 0.00 | 0.00 | 0.00 | 93 | 1016.6 |
| 20260507072503 | 13 | 250 | 0.0 | 0.0 | 0.00 | 0.00 | 0.00 | 93 | 1016.6 |
| 20260507071602 | 13 | 250 | 0.0 | 0.0 | 0.00 | 0.00 | 0.00 | 93 | 1016.6 |
| 20260507070701 | 13 | 250 | 0.0 | 0.0 | 0.00 | 0.00 | 0.00 | 93 | 1016.6 |
| 20260507065801 | 13 | 250 | 0.0 | 0.0 | 0.00 | 0.00 | 0.00 | 93 | 1016.6 |
| 20260507064900 | 13 | 250 | 0.0 | 0.0 | 0.00 | 0.00 | 0.00 | 93 | 1016.6 |
| 20260507063958 | 13 | 250 | 0.0 | 0.0 | 0.00 | 0.00 | 0.00 | 93 | 1016.6 |
| 20260507063058 | 13 | 250 | 0.0 | 0.0 | 0.00 | 0.00 | 0.00 | 92 | 1016.6 |
| 20260507062157 | 13 | 249 | 0.0 | 0.0 | 0.00 | 0.00 | 0.00 | 92 | 1016.6 |
| 20260507061256 | 13 | 250 | 0.0 | 0.0 | 0.00 | 0.00 | 0.00 | 92 | 1016.6 |
| 20260507060355 | 13 | 250 | 0.0 | 0.0 | 0.00 | 0.00 | 0.00 | 91 | 1016.6 |
| 20260507055454 | 13 | 250 | 0.0 | 0.0 | 0.00 | 0.00 | 0.00 | 91 | 1016.6 |
| 20260507054553 | 14 | 250 | 0.0 | 0.0 | 0.00 | 0.00 | 0.00 | 91 | 1016.6 |
| 20260507053652 | 14 | 250 | 0.0 | 0.0 | 0.00 | 0.00 | 0.00 | 91 | 1016.6 |
| 20260507052751 | 14 | 250 | 0.0 | 0.0 | 0.00 | 0.00 | 0.00 | 91 | 1016.6 |
| 20260507051850 | 14 | 250 | 0.0 | 0.0 | 0.00 | 0.00 | 0.00 | 91 | 1016.6 |
| 20260507050918 | 14 | 250 | 0.0 | 0.0 | 0.00 | 0.00 | 0.00 | 90 | 1016.6 |
| 20260507050017 | 14 | 250 | 0.0 | 0.0 | 0.00 | 0.00 | 0.00 | 90 | 1016.6 |
| 20260507045116 | 14 | 274 | 0.0 | 0.0 | 0.00 | 0.00 | 0.00 | 89 | 1016.6 |
| 20260507044215 | 15 | 274 | 0.0 | 0.0 | 0.00 | 0.00 | 0.00 | 89 | 1016.6 |
| 20260507043314 | 15 | 274 | 0.0 | 0.0 | 0.00 | 0.00 | 0.00 | 89 | 1016.6 |
| 20260507042413 | 15 | 250 | 0.0 | 0.0 | 0.00 | 0.00 | 0.00 | 89 | 1016.6 |
| 20260507041441 | 15 | 256 | 0.0 | 3.2 | 0.00 | 0.00 | 0.00 | 88 | 1016.3 |
| 20260507040540 | 15 | 270 | 0.0 | 3.2 | 0.00 | 0.00 | 0.00 | 87 | 1016.3 |
| 20260507035639 | 15 | 255 | 0.0 | 3.2 | 0.00 | 0.00 | 0.00 | 87 | 1016.3 |
| 20260507034737 | 15 | 285 | 3.2 | 6.4 | 0.00 | 0.00 | 0.00 | 87 | 1016.3 |
| 20260507033836 | 15 | 256 | 3.2 | 6.4 | 0.00 | 0.00 | 0.00 | 86 | 1016.3 |
| 20260507032936 | 15 | 240 | 0.0 | 6.4 | 0.00 | 0.00 | 0.00 | 86 | 1015.9 |
| 20260507032003 | 16 | 269 | 3.2 | 6.4 | 0.00 | 0.00 | 0.00 | 86 | 1015.9 |
| 20260507031031 | 16 | 252 | 3.2 | 8.0 | 0.00 | 0.00 | 0.00 | 85 | 1015.9 |
| 20260507030130 | 16 | 252 | 3.2 | 11.3 | 0.00 | 0.00 | 0.00 | 84 | 1015.9 |
| 20260507025229 | 16 | 258 | 3.2 | 11.3 | 0.00 | 0.00 | 0.00 | 83 | 1015.9 |
| 20260507024329 | 16 | 257 | 3.2 | 6.4 | 0.00 | 0.00 | 0.00 | 81 | 1015.6 |
| 20260507023428 | 17 | 241 | 3.2 | 8.0 | 0.00 | 0.00 | 0.00 | 80 | 1015.6 |
| 20260507022527 | 17 | 258 | 3.2 | 11.3 | 0.00 | 0.00 | 0.00 | 78 | 1015.6 |
| 20260507021626 | 18 | 266 | 3.2 | 11.3 | 0.00 | 0.00 | 0.00 | 76 | 1015.6 |
| 20260507020725 | 18 | 269 | 3.2 | 11.3 | 0.00 | 0.00 | 0.00 | 74 | 1015.6 |
| 20260507015824 | 18 | 273 | 3.2 | 11.3 | 0.00 | 0.00 | 0.00 | 73 | 1015.6 |
| 20260507014923 | 18 | 277 | 3.2 | 11.3 | 0.00 | 0.00 | 0.00 | 73 | 1015.6 |
| 20260507014022 | 19 | 262 | 3.2 | 14.5 | 0.00 | 0.00 | 0.00 | 71 | 1015.6 |
| 20260507013121 | 19 | 266 | 4.8 | 14.5 | 0.00 | 0.00 | 0.00 | 70 | 1015.6 |
| 20260507012220 | 19 | 257 | 6.4 | 14.5 | 0.00 | 0.00 | 0.00 | 69 | 1015.6 |
| 20260507011320 | 19 | 267 | 4.8 | 11.3 | 0.00 | 0.00 | 0.00 | 65 | 1015.2 |
| 20260507010418 | 19 | 260 | 4.8 | 17.7 | 0.00 | 0.00 | 0.00 | 67 | 1015.2 |
| 20260507005517 | 20 | 261 | 4.8 | 17.7 | 0.00 | 0.00 | 0.00 | 66 | 1015.2 |
| 20260507004616 | 20 | 268 | 3.2 | 11.3 | 0.00 | 0.00 | 0.00 | 63 | 1015.2 |
| 20260507003644 | 20 | 298 | 4.8 | 14.5 | 0.00 | 0.00 | 0.00 | 64 | 1015.2 |
| 20260507002744 | 20 | 253 | 8.0 | 14.5 | 0.00 | 0.00 | 0.00 | 63 | 1015.2 |
| 20260507001843 | 20 | 263 | 4.8 | 14.5 | 0.00 | 0.00 | 0.00 | 62 | 1015.2 |
| 20260507000911 | 20 | 273 | 3.2 | 20.9 | 0.00 | 0.00 | 0.00 | 62 | 1015.2 |
| 20260506235939 | 20 | 259 | 8.0 | 20.9 | 0.00 | 0.00 | 0.00 | 61 | 1015.2 |
| 20260506235039 | 20 | 302 | 3.2 | 20.9 | 0.00 | 0.00 | 0.00 | 64 | 1015.2 |
| 20260506234107 | 20 | 255 | 8.0 | 20.9 | 0.00 | 0.00 | 0.00 | 64 | 1015.2 |
| 20260506233206 | 20 | 249 | 8.0 | 17.7 | 0.00 | 0.00 | 0.00 | 62 | 1014.9 |
| 20260506232306 | 20 | 265 | 4.8 | 17.7 | 0.00 | 0.00 | 0.00 | 63 | 1015.2 |
| 20260506231404 | 20 | 248 | 6.4 | 20.9 | 0.00 | 0.00 | 0.00 | 64 | 1015.2 |
| 20260506230431 | 20 | 257 | 6.4 | 20.9 | 0.00 | 0.00 | 0.00 | 66 | 1015.2 |
| 20260506225531 | 20 | 260 | 6.4 | 17.7 | 0.00 | 0.00 | 0.00 | 65 | 1015.2 |
| 20260506224630 | 20 | 268 | 6.4 | 17.7 | 0.00 | 0.00 | 0.00 | 67 | 1015.6 |
| 20260506223729 | 19 | 244 | 4.8 | 17.7 | 0.00 | 0.00 | 0.00 | 69 | 1015.6 |
| 20260506222828 | 20 | 259 | 6.4 | 17.7 | 0.00 | 0.00 | 0.00 | 68 | 1015.6 |
| 20260506221856 | 20 | 261 | 6.4 | 22.5 | 0.00 | 0.00 | 0.00 | 67 | 1015.6 |
| 20260506220955 | 20 | 250 | 6.4 | 22.5 | 0.00 | 0.00 | 0.00 | 66 | 1015.6 |
| 20260506220054 | 20 | 259 | 8.0 | 20.9 | 0.00 | 0.00 | 0.00 | 66 | 1015.9 |
| 20260506215122 | 20 | 267 | 4.8 | 20.9 | 0.00 | 0.00 | 0.00 | 66 | 1015.9 |
| 20260506214150 | 20 | 245 | 6.4 | 20.9 | 0.00 | 0.00 | 0.00 | 65 | 1015.9 |
| 20260506213217 | 20 | 266 | 4.8 | 20.9 | 0.00 | 0.00 | 0.00 | 66 | 1015.9 |
| 20260506212317 | 20 | 257 | 8.0 | 22.5 | 0.00 | 0.00 | 0.00 | 64 | 1015.9 |
| 20260506211415 | 20 | 256 | 6.4 | 22.5 | 0.00 | 0.00 | 0.00 | 64 | 1015.9 |
| 20260506210514 | 20 | 280 | 4.8 | 25.7 | 0.00 | 0.00 | 0.00 | 65 | 1015.9 |
| 20260506205613 | 20 | 285 | 6.4 | 25.7 | 0.00 | 0.00 | 0.00 | 65 | 1015.9 |
| 20260506204712 | 20 | 266 | 6.4 | 17.7 | 0.00 | 0.00 | 0.00 | 65 | 1015.9 |
| 20260506203811 | 20 | 264 | 0.0 | 0.0 | 0.00 | 0.00 | 0.00 | 65 | 1015.9 |
| 20260506202839 | 21 | 264 | 0.0 | 0.0 | 0.00 | 0.00 | 0.00 | 62 | 1016.3 |
| 20260506201938 | 21 | 249 | 0.0 | 0.0 | 0.00 | 0.00 | 0.00 | 64 | 1016.3 |
| 20260506201037 | 20 | 233 | 0.0 | 0.0 | 0.00 | 0.00 | 0.00 | 64 | 1016.3 |
| 20260506200137 | 20 | 306 | 0.0 | 0.0 | 0.00 | 0.00 | 0.00 | 66 | 1016.3 |
| 20260506195235 | 20 | 205 | 0.0 | 0.0 | 0.00 | 0.00 | 0.00 | 64 | 1016.3 |
| 20260506194335 | 21 | 316 | 0.0 | 0.0 | 0.00 | 0.00 | 0.00 | 64 | 1016.6 |
| 20260506193403 | 22 | 258 | 0.0 | 0.0 | 0.00 | 0.00 | 0.00 | 59 | 1016.6 |
| 20260506192502 | 22 | 311 | 0.0 | 0.0 | 0.00 | 0.00 | 0.00 | 59 | 1016.6 |
| 20260506191530 | 22 | 226 | 0.0 | 0.0 | 0.00 | 0.00 | 0.00 | 59 | 1016.6 |
| 20260506190629 | 22 | 36 | 0.0 | 0.0 | 0.00 | 0.00 | 0.00 | 59 | 1016.6 |
| 20260506185728 | 21 | 242 | 0.0 | 0.0 | 0.00 | 0.00 | 0.00 | 59 | 1016.9 |
| 20260506184827 | 21 | 267 | 0.0 | 0.0 | 0.00 | 0.00 | 0.00 | 61 | 1016.9 |
| 20260506183926 | 21 | 184 | 0.0 | 0.0 | 0.00 | 0.00 | 0.00 | 60 | 1016.9 |
| 20260506183025 | 21 | 207 | 0.0 | 0.0 | 0.00 | 0.00 | 0.00 | 62 | 1016.9 |
| 20260506182124 | 20 | 266 | 0.0 | 0.0 | 0.00 | 0.00 | 0.00 | 64 | 1017.3 |
| 20260506181223 | 21 | 265 | 0.0 | 0.0 | 0.00 | 0.00 | 0.00 | 60 | 1017.3 |
| 20260506180322 | 20 | 299 | 0.0 | 0.0 | 0.00 | 0.00 | 0.00 | 62 | 1017.3 |
| 20260506175350 | 20 | 301 | 0.0 | 0.0 | 0.00 | 0.00 | 0.00 | 61 | 1017.3 |
| 20260506174418 | 20 | 278 | 0.0 | 0.0 | 0.00 | 0.00 | 0.00 | 61 | 1017.6 |
| 20260506173517 | 20 | 86 | 0.0 | 0.0 | 0.00 | 0.00 | 0.00 | 62 | 1017.6 |
| 20260506172616 | 19 | 191 | 0.0 | 0.0 | 0.00 | 0.00 | 0.00 | 62 | 1017.6 |
| 20260506171643 | 19 | 194 | 0.0 | 0.0 | 0.00 | 0.00 | 0.00 | 64 | 1017.6 |
| 20260506170711 | 19 | 295 | 0.0 | 0.0 | 0.00 | 0.00 | 0.00 | 65 | 1017.6 |
| 20260506165738 | 19 | 248 | 0.0 | 0.0 | 0.00 | 0.00 | 0.00 | 64 | 1017.6 |
| 20260506164837 | 18 | 287 | 0.0 | 0.0 | 0.00 | 0.00 | 0.00 | 67 | 1017.6 |
| 20260506163936 | 17 | 299 | 0.0 | 0.0 | 0.00 | 0.00 | 0.00 | 70 | 1017.9 |
| 20260506163035 | 17 | 286 | 0.0 | 0.0 | 0.00 | 0.00 | 0.00 | 73 | 1017.9 |
| 20260506162134 | 17 | 262 | 0.0 | 0.0 | 0.00 | 0.03 | 0.00 | 71 | 1017.9 |